{"data":{"norad_id":68325,"intl_designator":"2026-059E","name":"STARLINK-36309","alt_names":[],"object_type":"PAYLOAD","status":"ACTIVE","operator":null,"country":"US","launch_date":"2026-03-22","launch_site_code":"AFETR","launch_vehicle":null,"mission":null,"orbit_class":"UNKNOWN","rcs_meters":null,"size_class":null,"mass_kg":null,"dimensions":null,"purposes":["comms"],"wikipedia_slug":null,"has_3d_model":false,"image_url":null,"decayed_at":null,"tle_current":{"epoch":"2026-09-19T07:36:31.413600Z","epoch_age_seconds":150669,"freshness":"FRESH","line1":"1 68325U 26059E   26262.31703025  .00004217  00000+0  13592-3 0  9991","line2":"2 68325  53.1604 161.5708 0001416  75.0913 285.0247 15.34385939 27928","mean_motion":15.34385939,"eccentricity":0.0001416,"inclination_deg":53.1604,"raan_deg":161.5708,"arg_perigee_deg":75.0913,"mean_anomaly_deg":285.0247,"bstar":0.00013592,"rev_number":2792,"period_min":93.848618095294,"perigee_km":461.77636388563,"apogee_km":463.71370167732,"semimajor_km":6840.8820327815,"source":"CELESTRAK","updated_at":"2026-09-20T09:00:43.883683Z"}}}